Probability
0 0 0 0 0 0 0 0 0 0 0 0 0 0 0 0 0 0 3 0 6 10 32 32 58 52 48 52 52 52 45 45 42 45 42 45 45 45 45 45 48 45 32 32 35 35 26 23 19
0 0 0 0 0 0 0 0 0 0 0 0 0 0 0 0 0 3 3 10 6 10 23 29 45 52 52 52 45 45 45 48 45 39 42 45 45 42 42 45 52 45 39 35 42 29 29 23 23
0 0 0 0 0 0 0 0 0 0 0 0 0 0 0 0 3 3 10 10 6 19 23 23 42 39 48 45 45 45 42 42 39 35 35 35 45 42 39 45 48 42 42 42 32 26 26 23 23
0 0 0 0 0 0 0 0 0 0 0 0 0 0 3 3 3 3 6 13 19 19 23 26 42 39 42 42 39 42 35 26 29 35 35 32 35 39 39 39 45 45 45 39 29 19 19 23 19
0 0 0 0 0 0 0 0 0 0 0 0 0 0 0 0 6 6 10 23 23 19 19 29 39 42 39 32 26 39 32 29 32 32 35 35 26 29 32 32 32 42 39 32 23 16 13 16 19
0 0 0 0 0 0 0 0 0 0 0 0 0 0 0 0 6 10 6 23 23 19 23 29 35 32 32 29 29 29 45 39 39 39 42 35 32 29 29 32 29 26 32 26 16 13 13 13 13
0 0 0 0 0 0 0 0 0 0 0 0 0 0 0 3 10 10 10 23 16 19 26 29 29 19 19 23 26 29 32 42 42 39 39 32 26 29 29 26 23 23 19 26 19 13 13 10 13
0 0 0 0 0 0 0 0 0 0 0 0 0 0 0 3 10 13 13 19 19 23 23 19 16 16 16 19 23 19 19 19 32 29 16 13 10 10 23 19 19 19 19 19 19 16 16 16 6
0 0 0 0 0 0 0 0 0 0 0 0 0 0 0 0 3 16 19 19 26 26 16 13 10 19 19 16 13 13 10 3 6 6 6 6 6 13 13 6 6 6 16 19 13 10 16 6 3
0 0 0 0 0 0 0 0 0 0 0 0 0 0 0 0 6 13 16 16 19 23 19 16 10 23 16 13 13 23 10 6 6 10 6 10 13 10 10 0 0 3 3 6 13 13 10 3 3
0 0 0 0 0 0 0 0 0 0 0 0 0 0 0 3 6 10 13 13 13 19 16 16 10 13 16 16 10 19 13 10 6 6 6 13 13 13 13 13 3 3 0 3 10 10 6 3 3
0 0 0 0 0 0 0 0 0 0 0 0 0 0 0 0 3 10 10 10 16 16 13 13 10 6 10 13 13 13 10 3 3 6 6 13 10 13 16 13 10 3 3 6 10 10 6 6 0
0 0 0 0 0 0 0 0 0 0 0 0 0 0 3 0 0 3 10 10 13 10 13 16 13 10 16 13 6 3 3 0 0 10 10 6 10 10 13 10 6 3 3 6 3 0 0 3 0
0 0 0 0 0 0 0 0 0 0 0 0 0 0 0 3 3 3 6 6 6 10 10 13 10 13 10 13 3 3 3 3 3 6 10 10 10 10 13 6 3 6 6 3 0 0 0 3 0
0 0 0 0 0 0 0 0 0 0 0 0 0 0 0 0 0 0 0 3 3 3 6 6 10 13 10 6 6 3 3 3 3 3 6 10 10 10 10 6 6 3 3 3 0 0 0 0 0
0 0 0 0 0 0 0 0 0 0 0 0 0 0 0 0 0 0 0 0 0 0 3 0 0 3 6 3 3 3 3 3 3 3 10 6 6 10 6 6 6 3 3 0 0 0 0 0 0
0 0 0 0 0 0 0 0 0 0 0 0 0 0 0 0 0 0 0 0 0 0 0 0 3 6 3 3 6 6 3 0 3 3 3 6 6 6 6 6 6 6 3 0 0 0 0 0 0
0 0 0 0 0 0 0 0 0 0 0 0 0 0 0 0 0 0 0 0 0 0 0 0 0 0 6 6 10 6 3 0 0 0 0 0 3 3 3 3 0 0 3 3 0 0 0 0 0
0 0 0 0 0 0 0 0 0 0 0 0 0 0 0 0 0 0 0 0 0 0 0 0 0 0 0 3 3 0 0 0 0 0 0 0 0 0 3 0 0 0 3 0 0 0 0 0 0
0 0 0 0 0 0 0 0 0 0 0 0 0 0 0 0 0 0 0 0 0 0 0 0 0 0 0 3 3 0 0 0 3 0 0 0 0 0 0 0 0 0 0 0 0 0 0 0 0
0 0 0 0 0 0 0 0 0 0 0 0 0 0 0 0 0 0 0 0 0 0 0 0 0 0 0 3 0 0 0 0 0 0 0 0 3 3 3 0 0 0 0 0 0 0 0 0 0
0 0 0 0 0 0 0 0 0 0 0 0 0 0 0 0 0 0 0 0 0 0 0 0 0 0 0 0 0 0 0 0 0 0 0 0 0 0 0 0 0 0 0 0 0 0 0 0 0
0 0 0 0 0 0 0 0 0 0 0 0 0 0 0 0 0 0 0 0 0 0 0 0 0 0 0 0 0 0 0 0 0 0 0 0 0 0 0 0 0 0 0 0 0 0 0 0 0
0 0 0 0 0 0 0 0 0 0 0 0 0 0 0 0 0 0 0 0 0 0 0 0 0 0 0 0 0 0 0 0 0 0 0 0 0 0 0 0 0 0 0 0 0 0 0 0 0
0 0 0 0 0 0 0 0 0 0 0 0 0 0 0 0 0 0 0 0 0 0 0 0 0 0 0 0 0 0 0 0 0 0 0 0 0 0 0 0 0 0 0 0 0 0 0 0 0
0 0 0 0 0 0 0 0 0 0 0 0 0 0 0 0 0 0 0 0 0 0 0 0 0 0 0 0 0 0 0 0 0 0 0 0 0 0 0 0 0 0 0 0 0 0 0 0 0
0 0 0 0 0 0 0 0 0 0 0 0 0 0 0 0 0 0 0 0 0 0 0 0 0 0 0 0 0 0 0 0 0 0 0 0 0 0 0 0 0 0 0 0 0 0 0 0 0
0 0 0 0 0 0 0 0 0 0 0 0 0 0 0 0 0 0 0 0 0 0 0 0 0 0 0 0 0 0 0 0 0 0 0 0 0 0 0 0 0 0 0 0 0 0 0 0 0
0 0 0 0 0 0 0 0 0 0 0 0 0 0 0 0 0 0 0 0 0 0 0 0 0 0 0 0 0 0 0 0 0 0 0 0 0 0 0 0 0 0 0 0 0 0 0 0 0
0 0 0 0 0 0 0 0 0 0 0 0 0 0 0 0 0 0 0 0 0 0 0 0 0 0 0 0 0 0 0 0 0 0 0 0 0 0 0 0 0 0 0 0 0 0 0 0 0
Height
5825 5826 5827 5827 5828 5828 5828 5829 5829 5830 5830 5831 5831 5833 5834 5836 5839 5841 5841 5841 5842 5844 5845 5846 5848 5849 5849 5851 5852 5853 5854 5856 5857 5858 5859 5860 5861 5862 5863 5864 5865 5866 5867 5868 5869 5870 5870 5871 5871
5820 5821 5822 5822 5822 5822 5823 5823 5823 5824 5824 5825 5826 5827 5828 5830 5832 5834 5835 5837 5838 5840 5841 5842 5844 5845 5846 5847 5848 5850 5851 5852 5853 5855 5856 5857 5858 5859 5860 5862 5863 5864 5865 5866 5867 5868 5868 5869 5870
5815 5816 5816 5816 5816 5817 5817 5817 5817 5817 5818 5819 5820 5821 5823 5825 5826 5828 5830 5831 5833 5835 5836 5838 5839 5841 5842 5843 5844 5846 5847 5849 5850 5851 5853 5854 5855 5856 5858 5859 5860 5861 5862 5863 5864 5865 5866 5867 5867
5810 5811 5811 5811 5810 5811 5811 5811 5811 5811 5812 5813 5814 5815 5817 5819 5821 5823 5824 5826 5828 5829 5831 5833 5834 5836 5837 5838 5839 5841 5843 5844 5846 5848 5849 5851 5852 5853 5855 5856 5857 5858 5860 5861 5862 5863 5863 5864 5865
5805 5805 5805 5804 5804 5804 5804 5804 5804 5804 5805 5806 5807 5809 5811 5813 5814 5816 5818 5820 5822 5824 5826 5827 5829 5830 5831 5833 5834 5836 5838 5840 5842 5844 5846 5847 5849 5850 5851 5853 5854 5855 5856 5858 5859 5860 5861 5861 5862
5799 5799 5799 5798 5798 5798 5798 5798 5798 5798 5799 5800 5801 5803 5805 5806 5808 5810 5812 5814 5816 5818 5820 5821 5823 5825 5826 5828 5829 5831 5833 5835 5837 5839 5841 5843 5845 5847 5848 5849 5851 5852 5853 5854 5855 5856 5857 5858 5859
5794 5792 5792 5792 5791 5791 5791 5791 5791 5791 5792 5793 5794 5796 5798 5800 5801 5803 5805 5807 5809 5811 5813 5815 5817 5818 5820 5822 5825 5827 5829 5831 5833 5835 5837 5839 5841 5843 5844 5846 5847 5849 5850 5851 5852 5853 5854 5855 5855
5786 5786 5785 5785 5785 5785 5785 5784 5784 5784 5785 5786 5787 5788 5791 5793 5794 5796 5798 5800 5803 5805 5806 5808 5810 5812 5814 5817 5819 5822 5824 5826 5828 5830 5833 5835 5837 5839 5840 5842 5844 5845 5846 5847 5848 5849 5850 5851 5851
5780 5780 5779 5779 5778 5778 5777 5777 5777 5776 5777 5778 5779 5781 5783 5785 5787 5789 5791 5793 5795 5797 5799 5801 5803 5806 5808 5811 5813 5816 5818 5820 5823 5825 5828 5830 5832 5834 5836 5838 5840 5841 5842 5843 5844 5845 5846 5847 5847
5774 5773 5773 5772 5771 5771 5770 5770 5769 5769 5769 5770 5771 5773 5775 5776 5779 5781 5783 5785 5787 5790 5792 5794 5797 5799 5802 5804 5807 5810 5812 5815 5817 5820 5823 5825 5828 5830 5832 5834 5836 5837 5838 5839 5841 5841 5842 5843 5843
5767 5767 5766 5765 5764 5764 5763 5763 5762 5761 5762 5763 5764 5765 5766 5768 5770 5772 5774 5777 5779 5782 5784 5786 5789 5792 5795 5798 5801 5803 5806 5809 5812 5814 5817 5820 5822 5825 5827 5829 5831 5833 5834 5835 5836 5837 5838 5839 5839
5761 5760 5759 5758 5757 5756 5756 5755 5754 5754 5755 5755 5755 5756 5757 5759 5761 5764 5766 5768 5771 5773 5776 5778 5781 5785 5788 5790 5793 5796 5799 5803 5806 5809 5811 5814 5817 5820 5822 5824 5826 5828 5830 5831 5832 5833 5834 5835 5835
5754 5753 5752 5751 5750 5749 5748 5747 5747 5747 5747 5747 5747 5747 5749 5751 5753 5755 5758 5761 5763 5765 5768 5770 5773 5777 5780 5783 5786 5789 5792 5796 5800 5803 5806 5808 5812 5815 5817 5819 5821 5823 5825 5826 5827 5828 5829 5830 5831
5747 5746 5745 5744 5742 5741 5740 5739 5738 5740 5739 5738 5738 5739 5740 5742 5745 5747 5750 5753 5755 5758 5760 5763 5765 5769 5773 5776 5779 5782 5786 5789 5793 5797 5800 5802 5806 5809 5811 5813 5815 5817 5819 5820 5822 5823 5824 5825 5826
5740 5739 5738 5737 5735 5734 5732 5732 5731 5732 5730 5730 5730 5731 5732 5734 5736 5739 5742 5745 5747 5750 5752 5754 5758 5761 5765 5769 5772 5775 5778 5782 5786 5790 5793 5796 5799 5802 5805 5807 5810 5811 5813 5815 5816 5817 5818 5820 5821
5733 5732 5731 5730 5728 5726 5725 5724 5724 5722 5722 5722 5722 5723 5724 5726 5729 5731 5734 5737 5740 5742 5745 5748 5751 5755 5758 5761 5764 5768 5771 5775 5779 5783 5786 5790 5792 5796 5798 5801 5803 5805 5807 5808 5809 5811 5812 5813 5814
5726 5725 5723 5722 5720 5718 5717 5716 5716 5714 5714 5714 5715 5716 5718 5719 5722 5724 5727 5730 5732 5735 5738 5741 5744 5747 5750 5753 5757 5761 5764 5767 5771 5775 5779 5782 5786 5789 5792 5794 5796 5798 5800 5802 5803 5804 5805 5806 5808
5719 5717 5715 5714 5712 5710 5709 5708 5708 5706 5706 5706 5708 5709 5711 5713 5716 5718 5720 5724 5726 5729 5732 5735 5738 5741 5743 5746 5750 5754 5757 5761 5764 5768 5772 5775 5779 5781 5784 5787 5789 5791 5793 5794 5796 5797 5798 5799 5800
5710 5709 5707 5706 5704 5702 5701 5700 5700 5698 5698 5699 5700 5702 5704 5707 5709 5711 5714 5717 5720 5723 5726 5729 5732 5735 5737 5740 5744 5747 5751 5754 5757 5761 5764 5767 5771 5774 5777 5779 5781 5783 5785 5787 5788 5789 5790 5791 5792
5702 5701 5700 5698 5696 5694 5693 5692 5692 5691 5691 5692 5693 5695 5698 5700 5702 5705 5708 5712 5715 5718 5721 5724 5726 5729 5732 5735 5738 5741 5744 5747 5750 5753 5756 5759 5763 5766 5768 5771 5773 5775 5777 5779 5780 5781 5782 5783 5784
5694 5693 5692 5690 5688 5686 5685 5685 5685 5685 5684 5685 5687 5689 5691 5694 5696 5699 5702 5706 5709 5713 5716 5718 5721 5723 5725 5728 5730 5733 5737 5739 5743 5746 5749 5752 5754 5757 5760 5762 5765 5767 5769 5770 5772 5773 5774 5775 5777
5686 5685 5684 5682 5680 5678 5678 5676 5678 5678 5677 5678 5680 5682 5685 5687 5690 5693 5697 5700 5703 5707 5709 5712 5714 5717 5719 5721 5724 5727 5730 5733 5736 5739 5741 5744 5746 5749 5752 5754 5757 5759 5760 5762 5764 5765 5766 5767 5769
5677 5676 5675 5673 5672 5671 5670 5669 5671 5670 5670 5672 5673 5675 5677 5680 5683 5687 5690 5694 5697 5700 5703 5705 5708 5710 5713 5715 5718 5721 5724 5727 5729 5732 5734 5736 5738 5741 5744 5746 5748 5750 5752 5753 5755 5757 5758 5759 5761
5667 5667 5666 5664 5663 5663 5663 5662 5662 5662 5663 5665 5666 5668 5670 5673 5676 5679 5683 5686 5689 5692 5696 5699 5701 5704 5707 5709 5711 5714 5717 5719 5722 5724 5726 5728 5731 5733 5736 5738 5740 5741 5743 5745 5746 5748 5749 5751 5752
5658 5658 5657 5655 5654 5654 5655 5653 5655 5655 5656 5657 5658 5660 5662 5664 5667 5671 5674 5678 5681 5685 5688 5692 5695 5697 5700 5702 5704 5706 5709 5712 5715 5717 5719 5721 5723 5725 5728 5729 5731 5732 5734 5735 5736 5738 5739 5741 5742
5649 5649 5649 5648 5646 5646 5645 5645 5647 5647 5647 5648 5650 5652 5654 5656 5660 5663 5667 5670 5673 5677 5680 5684 5687 5690 5692 5695 5697 5699 5702 5704 5707 5709 5711 5713 5715 5717 5719 5720 5721 5723 5724 5725 5727 5728 5729 5730 5731
5638 5638 5640 5638 5637 5636 5636 5637 5639 5639 5639 5639 5641 5643 5645 5648 5652 5655 5658 5661 5665 5668 5672 5675 5678 5681 5684 5687 5689 5691 5694 5696 5699 5700 5703 5705 5706 5708 5709 5711 5712 5713 5714 5715 5716 5717 5718 5719 5721
5628 5629 5629 5628 5627 5627 5627 5629 5631 5631 5631 5632 5633 5634 5637 5640 5643 5646 5650 5653 5657 5660 5663 5667 5670 5672 5675 5678 5681 5683 5685 5688 5690 5691 5693 5695 5697 5698 5699 5700 5701 5702 5703 5704 5705 5706 5707 5708 5710
5618 5619 5619 5618 5618 5618 5618 5623 5622 5622 5622 5623 5624 5626 5628 5631 5634 5637 5641 5644 5648 5651 5654 5658 5661 5664 5666 5669 5671 5673 5676 5678 5680 5682 5684 5685 5687 5688 5689 5690 5690 5691 5692 5693 5694 5695 5696 5697 5698
5605 5607 5609 5609 5609 5609 5609 5614 5614 5614 5614 5614 5615 5617 5619 5622 5624 5628 5631 5634 5638 5641 5644 5647 5651 5654 5656 5659 5661 5664 5666 5668 5670 5672 5673 5674 5675 5676 5677 5678 5679 5680 5681 5681 5682 5683 5684 5685 5687
Wind_Speed
21 22 22 23 24 25 25 24 23 23 24 24 24 24 23 23 23 23 23 21 20 20 19 18 18 17 16 17 16 16 16 16 16 16 16 15 15 15 14 14 13 12 11 10 10 9 9 8 8
22 22 23 24 25 25 25 24 25 25 25 25 26 26 25 25 25 25 25 24 22 22 21 21 19 18 18 18 18 18 18 17 17 17 16 16 16 16 16 15 15 13 13 12 11 10 10 9 9
22 22 23 24 25 25 25 25 25 26 27 27 27 27 27 26 26 26 26 25 24 23 23 22 22 21 20 20 19 19 19 19 18 18 17 17 17 17 17 16 16 15 14 13 13 12 12 11 10
22 22 23 24 23 24 25 25 26 27 27 28 28 29 28 27 27 27 28 27 26 25 25 24 24 23 22 21 21 21 20 20 20 19 18 18 17 17 17 17 17 16 15 14 14 13 13 13 12
22 23 24 24 24 24 25 26 26 26 27 27 28 29 28 28 27 28 28 29 28 27 26 26 25 24 23 23 22 22 21 21 21 20 20 19 18 18 17 17 18 17 16 16 15 15 15 15 14
22 23 24 24 24 24 25 25 26 27 27 27 29 29 29 29 28 28 28 29 29 29 28 27 26 25 25 24 24 23 23 23 22 22 21 20 20 19 19 18 18 17 17 17 17 16 16 16 15
23 24 25 25 25 24 25 26 26 27 28 28 29 29 29 29 29 29 29 30 30 29 29 29 28 28 28 26 25 24 24 24 24 23 23 22 21 21 20 19 19 18 18 18 18 18 17 17 17
24 25 25 25 26 25 26 27 27 28 29 30 30 30 30 30 30 30 30 31 31 31 30 30 29 29 29 28 27 26 25 25 25 24 24 23 22 22 21 21 20 19 19 19 19 19 18 18 18
25 26 26 26 26 26 27 27 28 29 30 31 31 30 30 30 31 31 31 31 32 31 31 31 31 30 31 30 29 28 27 27 26 26 25 25 24 23 22 21 21 20 20 19 19 19 19 18 19
26 26 26 27 27 27 27 28 28 28 29 30 30 30 30 31 32 31 32 32 32 32 31 31 31 31 32 31 30 29 29 29 28 27 27 26 25 24 23 22 21 21 21 20 20 20 20 19 19
25 25 26 27 27 28 27 27 28 29 29 29 29 29 30 31 32 33 33 33 33 33 32 32 32 32 32 32 32 31 30 30 30 29 28 27 27 26 25 24 23 22 21 21 20 21 21 20 20
24 25 26 26 27 27 27 27 28 29 29 29 29 29 30 31 32 33 34 34 33 33 33 33 33 33 33 33 33 32 32 31 30 30 29 29 28 27 26 25 24 23 22 21 21 21 21 21 21
24 25 26 26 26 27 27 27 28 29 29 29 30 30 30 31 32 33 33 34 34 34 33 33 33 33 33 34 34 34 33 32 32 31 30 29 29 28 27 26 25 25 24 23 23 22 22 22 22
25 25 26 26 27 28 28 28 28 28 29 30 30 30 30 31 32 33 33 34 35 35 34 34 33 32 34 35 34 34 34 33 33 33 32 30 30 30 28 27 27 27 26 25 24 24 23 24 23
26 26 26 27 27 28 29 29 28 28 29 30 30 30 30 30 32 33 33 33 34 35 35 34 32 32 33 34 35 35 34 34 34 34 33 32 31 31 30 29 28 28 28 28 27 26 25 25 24
27 27 27 27 28 29 30 29 28 29 29 30 30 30 29 29 30 31 33 33 33 34 34 33 33 33 34 35 36 36 36 36 36 36 34 34 33 33 32 30 29 30 30 29 29 28 28 27 27
28 28 28 28 29 29 29 28 28 29 30 29 29 30 29 29 30 30 31 32 32 32 32 32 31 32 34 34 35 36 35 37 37 36 35 34 34 33 33 32 32 32 32 32 31 31 31 30 29
28 28 28 29 29 29 29 28 29 29 30 29 29 30 30 29 30 30 30 30 31 31 31 31 31 32 34 35 36 36 36 36 37 36 36 36 36 35 35 35 34 34 33 33 33 33 33 32 32
30 30 29 29 29 30 29 28 28 29 29 29 29 29 30 29 29 30 31 30 30 30 28 29 29 30 32 34 35 35 36 36 36 35 35 35 36 36 36 37 35 35 35 34 34 35 34 34 34
31 31 30 30 30 30 29 28 28 28 27 28 28 28 28 29 30 30 31 30 31 30 29 28 29 30 31 33 34 34 35 36 36 36 35 36 37 36 36 37 37 37 36 36 34 35 35 35 34
31 31 30 30 30 30 30 29 28 28 28 28 29 29 28 29 30 30 32 31 31 31 29 29 28 29 29 31 32 34 36 36 35 35 35 36 38 38 37 36 38 38 38 37 36 36 36 36 36
32 31 31 31 31 31 31 31 28 28 29 29 29 28 29 30 31 31 32 32 30 31 31 31 30 29 31 31 32 34 35 35 35 35 35 36 37 38 38 38 39 39 39 39 38 36 36 37 37
33 32 32 32 32 32 31 32 29 29 30 30 29 29 29 30 32 33 33 32 31 31 32 32 31 30 30 31 32 33 34 33 34 35 36 36 37 38 39 38 39 40 40 40 40 38 37 37 37
33 33 33 33 33 33 31 31 30 30 31 30 30 31 31 31 32 33 33 34 34 33 34 33 31 32 31 31 31 33 34 33 33 35 36 36 37 39 40 39 39 40 41 41 41 41 40 40 40
34 33 33 34 34 33 31 32 30 29 30 31 31 32 33 33 33 33 33 34 34 35 34 33 34 33 33 32 32 33 34 34 34 35 36 37 38 38 39 40 39 40 41 42 43 43 42 42 42
34 34 34 35 35 34 32 32 30 29 30 31 32 33 33 34 34 34 34 34 35 35 35 35 35 35 35 34 34 34 35 35 35 36 36 37 38 39 40 41 41 41 42 42 42 44 45 44 43
36 36 35 37 37 36 35 33 31 31 31 32 32 33 33 33 34 36 35 34 35 35 36 36 36 37 37 37 36 36 36 36 36 37 38 38 39 41 41 42 42 43 44 44 44 43 44 45 45
37 36 37 37 38 37 36 33 32 32 32 32 32 33 34 35 35 35 36 35 34 35 36 36 37 38 38 38 37 37 37 37 37 37 39 40 41 41 42 42 43 43 44 44 44 44 44 44 44
39 38 38 39 40 39 37 34 32 31 31 31 32 33 35 36 36 36 36 37 37 37 37 37 37 38 38 38 38 38 38 38 39 38 39 41 41 42 43 43 43 43 44 44 44 44 45 44 45
41 40 39 39 40 39 38 35 32 31 31 32 33 34 35 37 38 39 39 38 39 40 40 39 39 39 39 39 40 39 39 39 39 39 39 40 41 42 43 43 43 44 45 45 46 46 46 46 46
Wind_Direction
260 260 259 259 259 258 258 258 256 254 252 250 249 247 246 245 241 241 239 237 235 234 235 234 234 234 233 231 229 229 227 227 227 226 223 221 220 220 220 219 215 216 220 221 221 222 225 226 228
261 260 258 258 259 260 260 258 256 253 252 250 249 248 246 245 243 241 241 239 236 235 236 235 235 234 233 233 232 229 228 228 227 226 224 223 221 221 221 222 219 220 224 226 226 227 228 230 232
260 260 259 259 261 261 260 258 255 253 252 250 249 248 247 245 243 241 240 239 237 237 237 237 237 237 235 234 234 231 229 228 228 226 225 224 222 222 224 225 224 223 226 229 229 231 233 234 237
261 261 261 261 262 261 258 257 255 254 251 249 248 248 247 246 244 242 240 239 238 238 238 238 237 238 238 235 233 232 231 229 228 228 226 225 224 223 224 227 229 228 228 232 234 235 237 238 241
263 264 263 263 263 262 258 256 256 254 251 248 247 246 246 246 245 243 240 239 239 239 238 238 238 238 236 234 233 233 231 230 228 228 227 226 226 226 226 228 231 232 231 234 237 239 240 242 245
266 267 266 265 265 262 258 257 256 254 251 249 247 246 246 245 244 242 240 239 239 239 238 238 239 237 234 232 231 232 231 230 229 228 228 228 228 229 230 231 233 233 235 237 239 241 243 245 246
269 269 267 267 264 263 259 257 256 254 252 250 248 247 245 244 244 242 240 239 238 238 239 239 238 235 233 231 231 231 231 231 230 230 229 229 229 230 232 233 234 236 238 239 240 243 245 247 248
270 270 268 267 265 262 259 258 258 256 252 250 249 248 246 244 243 243 241 240 238 238 238 239 237 235 232 230 230 230 231 232 231 230 230 229 230 231 233 235 235 237 239 240 241 245 248 248 250
271 269 269 267 265 263 260 259 258 258 255 252 251 251 249 244 242 242 242 240 238 238 238 237 236 234 232 230 230 229 231 232 232 231 230 230 230 232 234 236 237 239 240 242 244 247 250 251 252
271 270 268 267 266 265 264 261 261 257 255 254 254 254 250 245 240 240 240 238 238 237 238 238 237 234 231 231 231 230 231 232 232 231 231 231 231 232 234 235 238 241 242 244 247 248 251 253 253
272 271 269 268 268 267 266 264 261 257 255 255 254 252 249 246 240 238 238 237 236 237 237 237 235 233 232 232 232 231 231 232 232 232 232 232 232 233 236 237 238 241 244 246 248 250 250 251 253
273 270 269 269 268 267 266 263 261 258 256 255 254 251 248 246 241 238 237 236 235 235 235 236 234 233 232 232 233 232 231 231 232 233 233 232 233 234 236 239 241 243 244 246 249 250 251 251 251
274 272 270 269 268 267 266 263 261 258 257 254 253 251 247 244 240 237 235 234 234 234 234 234 234 235 232 232 232 231 230 230 231 231 233 232 232 234 237 240 242 245 245 247 251 251 252 252 252
275 274 271 269 270 269 266 264 261 258 257 254 253 251 246 243 239 236 234 232 233 233 235 236 234 233 232 231 231 231 230 230 230 230 232 233 233 234 237 240 243 245 247 249 251 252 253 253 254
275 274 272 271 272 270 268 264 263 259 256 255 253 251 246 243 238 236 234 233 233 233 234 234 235 233 231 230 229 229 229 230 230 231 232 235 234 234 237 240 244 246 248 251 251 253 254 255 254
275 274 273 272 273 272 270 267 264 259 256 255 252 249 244 241 239 235 234 233 233 233 233 235 235 233 232 230 228 228 229 230 231 232 233 235 235 235 237 241 244 247 249 252 252 252 255 256 256
275 276 275 274 273 273 271 268 264 260 256 253 250 247 243 240 238 235 234 233 234 234 233 235 234 232 232 230 229 228 229 230 232 232 234 235 236 237 239 242 245 248 250 252 253 252 254 257 258
276 275 275 275 274 273 272 269 264 260 256 253 249 246 242 239 238 237 234 232 232 233 234 234 233 233 231 230 228 229 230 231 232 233 235 236 237 239 242 243 245 248 250 252 253 254 255 257 259
274 275 276 276 274 273 271 267 263 260 256 252 248 245 242 239 237 236 233 232 232 232 233 232 233 232 230 230 230 231 232 234 233 233 237 238 239 241 243 244 246 249 251 252 254 254 254 256 258
273 274 276 275 274 274 271 267 263 259 255 251 247 243 241 238 237 236 235 232 233 234 234 234 235 231 230 231 233 232 233 234 235 236 239 239 240 242 245 245 246 249 251 251 252 253 254 255 257
272 274 275 275 274 273 271 268 263 258 255 250 246 243 240 238 237 237 235 234 233 232 234 234 236 235 235 235 234 233 233 234 236 237 240 240 241 242 244 245 245 247 249 251 253 253 254 255 256
271 272 273 274 273 272 271 269 265 259 255 251 246 244 241 238 237 236 236 235 235 234 235 236 238 238 237 237 236 235 236 237 239 241 243 242 243 243 245 246 247 248 250 251 253 255 255 256 257
270 270 271 271 270 270 269 269 266 260 256 252 248 244 243 240 238 237 238 236 234 236 236 238 238 238 239 240 239 237 237 240 241 242 243 243 244 244 245 247 249 250 251 252 252 255 256 257 258
268 268 269 269 269 268 269 270 267 261 255 253 250 245 242 241 240 238 238 236 235 237 236 237 238 239 241 243 242 241 239 241 243 245 243 244 245 246 247 249 250 253 254 254 254 256 257 258 259
264 265 267 269 269 269 269 268 268 263 258 255 251 246 242 241 240 240 238 238 237 237 237 237 239 239 241 242 242 243 242 241 244 247 246 246 247 248 249 250 252 255 256 255 256 256 258 260 261
262 263 265 268 271 271 269 268 267 264 260 256 252 248 243 242 242 241 240 240 238 238 238 240 240 242 242 242 242 245 244 243 246 247 247 249 251 251 251 252 254 256 258 259 259 259 259 260 261
260 261 263 266 268 269 268 268 266 263 261 257 253 248 244 244 243 242 240 241 238 238 239 241 243 244 244 244 245 247 246 245 246 248 249 251 252 253 254 254 257 258 259 261 262 261 262 261 261
259 261 262 263 266 268 268 268 267 263 261 258 254 249 246 246 244 242 240 240 240 239 240 243 244 244 245 246 248 248 248 249 249 250 251 252 253 254 255 257 258 259 260 260 260 261 262 262 262
258 259 260 262 263 265 267 266 265 264 260 259 255 252 249 247 245 243 242 242 242 242 241 243 245 246 246 247 248 250 251 251 251 252 254 254 254 256 256 258 259 260 260 260 260 261 262 262 261
257 257 259 261 262 263 265 264 262 262 261 260 257 254 252 249 247 245 244 244 245 245 244 245 245 245 247 247 248 250 252 253 254 254 256 256 256 257 258 259 260 260 260 260 260 260 261 261 262